Flight Track Log - Related Links

Times and Time Zones

All times are in EDT time to prevent confusion due to time zone crossing. See the N775NC flight status page for this flight to view local times or setup timezone preferences in your user account.

Time Position Orientation Groundspeed Altitude Reporting Facility
EDT Latitude Longitude Course Direction KTS MPH feet Rate Location/Type
Thu 09:54:30 AM 35.8667 -78.8086 263° West 171 197 1,500  Level Washington Center
Thu 09:55:49 AM 35.8211 -78.8708 228° Southwest 230 265 3,500 1,543 Climbing Washington Center
Thu 09:56:50 AM 35.8253 -78.9481 274° West 245 282 5,100 1,918 Climbing Washington Center
Thu 09:57:00 AM 35.8333 -79.2593 270° West  Level FlightAware
Thu 09:57:51 AM 35.8394 -79.0408 281° West 280 322 7,400  Level Washington Center
Thu 09:58:00 AM 35.8222 -79.3791 263° West  Level FlightAware
Thu 09:58:36 AM 35.8417 -79.1025 273° West 279 321 9,100  Level Washington Center
Thu 09:59:00 AM 35.8102 -79.4988 263° West  Level FlightAware
Thu 09:59:36 AM 35.8364 -79.2097 267° West 290 334 11,900  Level Washington Center
Thu 10:01:57 AM 35.8100 -79.4528 262° West 318 366 15,900 1,642 Climbing Atlanta Center
Thu 10:02:57 AM 35.8036 -79.5683 266° West 330 380 17,400 1,850 Climbing Atlanta Center
Thu 10:03:57 AM 35.8106 -79.6983 274° West 338 389 19,600 1,750 Climbing Atlanta Center
Thu 10:04:57 AM 35.8169 -79.8236 274° West 357 411 20,900 1,250 Climbing Atlanta Center
Thu 10:05:57 AM 35.8311 -79.9331 279° West 368 423 22,100 3,550 Climbing Atlanta Center
Thu 10:06:57 AM 35.8311 -80.0611 270° West 375 432 28,000 1,250 Climbing Atlanta Center
Thu 10:07:57 AM 35.7978 -80.1933 253° West 381 438 24,600 -1,050 Descending Atlanta Center
Thu 10:08:57 AM 35.7706 -80.3275 256° West 400 460 25,900 1,250 Climbing Atlanta Center
Thu 10:09:57 AM 35.7392 -80.4594 254° West 407 468 27,100 1,050 Climbing Atlanta Center
Thu 10:10:57 AM 35.6992 -80.5917 250° West 407 468 28,000 450 Climbing Atlanta Center
Thu 10:11:57 AM 35.6569 -80.7264 249° West 419 482 28,000  Level Atlanta Center
Thu 10:12:57 AM 35.6128 -80.8739 250° West 419 482 28,000  Level Atlanta Center
Thu 10:13:57 AM 35.5703 -81.0081 249° West 419 482 28,000  Level Atlanta Center
Thu 10:14:57 AM 35.5236 -81.1450 247° West 419 482 28,000  Level Atlanta Center
Thu 10:15:57 AM 35.4831 -81.2894 251° West 442 509 28,000  Level Atlanta Center
Thu 10:16:57 AM 35.4483 -81.4156 251° West 442 509 28,000  Level Atlanta Center
Thu 10:17:57 AM 35.4072 -81.5517 250° West 437 503 28,000  Level Atlanta Center
Thu 10:18:57 AM 35.3661 -81.6931 250° West 437 503 28,000  Level Atlanta Center
Thu 10:19:57 AM 35.3231 -81.8344 250° West 440 506 28,000  Level Atlanta Center
Thu 10:20:57 AM 35.2817 -81.9781 251° West 449 517 28,000 -50 Level Atlanta Center
Thu 10:21:57 AM 35.2278 -82.1319 247° West 449 517 27,900 -400 Descending Atlanta Center
Thu 10:22:57 AM 35.1672 -82.2653 241° Southwest 462 532 27,200 -400 Descending Atlanta Center
Thu 10:23:57 AM 35.1000 -82.3961 238° Southwest 462 532 27,100 -100 Descending Atlanta Center
Thu 10:24:57 AM 35.0244 -82.5219 234° Southwest 462 532 27,000 450 Descending Atlanta Center
Thu 10:25:57 AM 34.9633 -82.6397 238° Southwest 470 541 28,000 -950 Climbing Atlanta Center
Thu 10:26:57 AM 34.8958 -82.7625 236° Southwest 465 535 25,100 -1,950 Descending Atlanta Center
Thu 10:27:57 AM 34.8261 -82.8900 236° Southwest 459 528 24,100 -500 Descending Atlanta Center
Thu 10:28:57 AM 34.7583 -83.0122 236° Southwest 449 517 24,100  Level Atlanta Center
Thu 10:29:57 AM 34.6883 -83.1394 236° Southwest 444 511 24,100 -450 Level Atlanta Center
Thu 10:30:57 AM 34.6203 -83.2564 235° Southwest 444 511 23,200 -1,450 Descending Atlanta Center
Thu 10:31:57 AM 34.5500 -83.3706 233° Southwest 444 511 21,200 -2,000 Descending Atlanta Center
Thu 10:32:57 AM 34.4672 -83.4794 227° Southwest 444 511 19,200 -1,850 Descending Atlanta Center
Thu 10:33:57 AM 34.3819 -83.5833 225° Southwest 439 505 17,500 -1,850 Descending Atlanta Center
Thu 10:34:57 AM 34.3092 -83.6717 225° Southwest 411 473 15,500 -2,050 Descending Atlanta Center
Thu 10:35:57 AM 34.2322 -83.7575 223° Southwest 391 450 13,400 -1,650 Descending Atlanta Center
Thu 10:36:57 AM 34.1614 -83.8253 218° Southwest 359 413 12,200 -650 Descending Atlanta Center
Thu 10:37:57 AM 34.0925 -83.8958 220° Southwest 315 362 12,100 -800 Descending Atlanta Center
Thu 10:38:57 AM 34.0322 -83.9486 216° Southwest 297 342 10,600 -1,500 Descending Atlanta Center
Thu 10:39:57 AM 33.9528 -83.9761 196° South 285 328 9,100 -850 Descending Atlanta Center
Thu 10:40:57 AM 33.8672 -83.9789 182° South 284 327 8,900 -550 Descending Atlanta Center
Thu 10:41:57 AM 33.8067 -83.9789 180° South 268 308 8,000 -450 Descending Atlanta Center
Thu 10:42:57 AM 33.7461 -84.0114 204° Southwest 247 284 8,000 -700 Level Atlanta Center
Thu 10:43:57 AM 33.6942 -84.0564 216° Southwest 234 269 6,600 -1,100 Descending Atlanta Center
Thu 10:44:57 AM 33.6606 -84.1186 237° Southwest 220 253 5,800 -1,000 Descending Atlanta Center
Thu 10:45:39 AM 33.6500 -84.1667 255° West 200 230 4,900 -1,176 Descending Atlanta TRACON
Thu 10:46:39 AM 33.6500 -84.2333 270° West 177 204 3,800 -947 Descending Atlanta TRACON
Thu 10:47:33 AM 33.6500 -84.2667 270° West 166 191 3,100 -850 Descending Atlanta TRACON
Thu 10:48:39 AM 33.6500 -84.3333 270° West 168 193 2,100 -810 Descending Atlanta TRACON
Thu 10:49:39 AM 33.6500 -84.3833 270° West 142 163 1,400 -700 Descending Atlanta TRACON

Login

Don't have an account? Register now (free) for customized features, flight alerts, and more!